This demonstration page uses our WeatherBlox Daily Observations layout. Learn more.

Left ArrowRight Arrow

Hourly Observations for June 22, 2021

Temp ( °F °C ) Dew Point ( °F °C ) Humidity (%) Winds ( mph kmh ) Pressure ( in mb ) Visibility ( mi km ) Precip ( " mm )
12:36 am 00:36 Mostly Clear 72 22.2 70 21.1 94 94 SSW 8 13 29.90 1013 10 16 0.00 0.00
12:53 am 00:53 Mostly Cloudy 72 22.2 70 21.1 94 94 SSW 8 13 29.89 1012 10 16 0.00 0.00
1:06 am 01:06 Cloudy 72 22.2 70 21.1 94 94 WSW 6 9 29.89 1012 10 16 0.00 0.00
1:35 am 01:35 Cloudy 73 22.8 70 21.1 90 90 SW 8 13 29.88 1012 10 16 0.00 0.00
1:50 am 01:50 Cloudy 73 23 70 21 89 89 SW 8 13 29.88 1012 10 16 0.00 0.00
1:53 am 01:53 Cloudy 73 22.8 70 21.1 90 90 SW 7 11 29.88 1012 10 16 0.00 0.00
2:01 am 02:01 Cloudy 73 22.8 70 21.1 90 90 SSW 8 13 29.88 1012 10 16 0.00 0.00
2:40 am 02:40 Cloudy with Light Rain 73 22.8 70 21.1 90 90 SSW 8 13 29.86 1011 10 16 0.00 0.00
2:53 am 02:53 Cloudy with Light Rain 72 22.2 70 21.1 94 94 SW 9 15 29.85 1011 9 14 0.00 0.00
3:01 am 03:01 Cloudy with Light Rain 72 22.2 69 20.6 91 91 SW 8 13 29.86 1011 10 16 0.00 0.00
3:08 am 03:08 Cloudy with Light Rain 72 22.2 69 20.6 91 91 SW 8 13 29.86 1011 10 16 0.00 0.00
3:15 am 03:15 Cloudy 71 21.7 68 20 90 90 WSW 9 15 29.86 1011 10 16 0.00 0.00
3:24 am 03:24 Mostly Cloudy 71 21.7 68 20 90 90 SW 8 13 29.86 1011 10 16 0.00 0.00
3:53 am 03:53 Cloudy 71 21.7 67 19.4 87 87 WSW 7 11 29.86 1011 10 16 0.00 0.00
4:53 am 04:53 Cloudy with Light Rain 70 21.1 67 19.4 90 90 SW 6 9 29.86 1011 10 16 0.00 0.00
5:25 am 05:25 Cloudy with Light Rain 69 20.6 68 20 96 96 SSW 5 7 29.88 1012 4 6 0.00 0.00
5:39 am 05:39 Cloudy with Light Rain 69 20.6 68 20 96 96 Calm 29.87 1011 5 8 0.00 0.00
5:53 am 05:53 Cloudy with Light Rain 69 20.6 68 20 96 96 WNW 7 11 29.87 1012 3 5 0.00 0.00
6:04 am 06:04 Cloudy with Rain 68 20 67 19.4 96 96 NNW 6 9 29.88 1012 4 6 0.00 0.00
6:53 am 06:53 Cloudy with Light Rain 69 20.6 68 20 96 96 SSW 5 7 29.87 1011 9 14 0.00 0.00
7:36 am 07:36 Cloudy with Light Rain 69 20.6 68 20 96 96 SW 3 6 29.88 1012 10 16 0.00 0.00
7:45 am 07:45 Cloudy 69 20.6 68 20 96 96 SSW 7 11 29.88 1012 10 16 0.00 0.00
7:53 am 07:53 Cloudy 70 21.1 68 20 93 93 SW 6 9 29.88 1012 10 16 0.00 0.00
8:53 am 08:53 Cloudy with Light Rain 70 21.1 68 20 93 93 SW 3 6 29.90 1013 5 8 0.00 0.00
9:03 am 09:03 Cloudy 70 21.1 69 20.6 97 97 SSW 5 7 29.89 1012 10 16 0.00 0.00
9:53 am 09:53 Cloudy 70 21.1 68 20 93 93 SSW 6 9 29.92 1013 10 16 0.00 0.00
10:53 am 10:53 Cloudy with Light Rain 71 21.7 68 20 90 90 W 6 9 29.92 1013 4 6 0.00 0.00
11:53 am 11:53 Cloudy 72 22.2 68 20 87 87 NW 7 11 29.93 1014 10 16 0.00 0.00
12:53 pm 12:53 Cloudy 74 23.3 68 20 82 82 NW 8 13 29.93 1014 10 16 0.00 0.00
1:53 pm 13:53 Mostly Cloudy 76 24.4 66 18.9 72 72 NW 10 17 29.92 1013 10 16 0.00 0.00
2:53 pm 14:53 Cloudy 79 26.1 64 17.8 60 60 WNW 14 22 29.91 1013 10 16 0.00 0.00
3:00 pm 15:00 Mostly Cloudy 77 25 65 18.3 66 66 VRB 7 11 29.91 1013 10 16 0.00 0.00
3:53 pm 15:53 Partly Cloudy 78 25.6 64 17.8 62 62 NW 9 15 29.92 1013 10 16 0.00 0.00
4:53 pm 16:53 Partly Cloudy 80 26.7 59 15 49 49 N 9 15 29.93 1013 10 16 0.00 0.00
5:53 pm 17:53 Sunny 80 26.7 60 15.6 51 51 NNW 10 17 29.92 1013 10 16 0.00 0.00
6:53 pm 18:53 Mostly Sunny 79 26.1 58 14.4 49 49 NW 7 11 29.93 1014 10 16 0.00 0.00
7:53 pm 19:53 Mostly Sunny 77 25 57 13.9 50 50 NNW 7 11 29.96 1014 10 16 0.00 0.00
8:53 pm 20:53 Clear 73 22.8 59 15 62 62 Calm 29.97 1015 10 16 0.00 0.00
9:53 pm 21:53 Mostly Clear 68 20 62 16.7 81 81 Calm 29.99 1016 10 16 0.00 0.00
10:53 pm 22:53 Clear 66 18.9 61 16.1 84 84 Calm 30.01 1016 10 16 0.00 0.00
11:53 pm 23:53 Clear 65 18.3 61 16.1 87 87 Calm 30.02 1017 10 16 0.00 0.00

Powered by AerisWeather